"Period start","avg(HW err(1)/warn(2) (#))","avg(Visibility (m))","avg(Weather code (#))","avg(Precip intensity (mm/h))","min(HW err(1)/warn(2) (#))","max(HW err(1)/warn(2) (#))","std(HW err(1)/warn(2) (#))","med(HW err(1)/warn(2) (#))","min(Visibility (m))","max(Visibility (m))","std(Visibility (m))","med(Visibility (m))","min(Weather code (#))","max(Weather code (#))","std(Weather code (#))","med(Weather code (#))","min(Precip intensity (mm/h))","max(Precip intensity (mm/h))","std(Precip intensity (mm/h))","med(Precip intensity (mm/h))"
2016-04-27 00:00:00,2,22757,0,0.00,2,2,0,2,13089,41385,9239,20144,0,0,0,0,0.00,0.00,0.00,0.00
2016-04-27 00:10:00,2,40429,0,0.00,2,2,0,2,32862,48777,5470,40516,0,0,0,0,0.00,0.00,0.00,0.00
2016-04-27 00:20:00,2,32973,0,0.00,2,2,0,2,21169,49326,8328,31187,0,0,0,0,0.00,0.00,0.00,0.00
2016-04-27 00:30:00,2,33212,0,0.00,2,2,0,2,24950,48199,6923,31806,0,0,0,0,0.00,0.00,0.00,0.00
2016-04-27 00:40:00,2,48541,0,0.00,2,2,0,2,40189,50000,2883,49967,0,0,0,0,0.00,0.00,0.00,0.00
2016-04-27 00:50:00,2,45408,0,0.00,2,2,0,2,39260,50000,3832,46790,0,0,0,0,0.00,0.00,0.00,0.00
2016-04-27 01:00:00,2,41313,0,0.00,2,2,0,2,28336,49540,6252,40768,0,0,0,0,0.00,0.00,0.00,0.00
2016-04-27 01:10:00,2,33650,0,0.00,2,2,0,2,21261,42814,6375,33891,0,0,0,0,0.00,0.00,0.00,0.00
2016-04-27 01:20:00,2,26735,0,0.00,2,2,0,2,15956,36476,6920,27822,0,0,0,0,0.00,0.00,0.00,0.00
2016-04-27 01:30:00,2,22510,0,0.00,2,2,0,2,16620,31962,4531,22991,0,0,0,0,0.00,0.00,0.00,0.00
2016-04-27 01:40:00,2,22961,0,0.00,2,2,0,2,19012,30002,3425,22348,0,0,0,0,0.00,0.00,0.00,0.00
2016-04-27 01:50:00,2,20099,0,0.00,2,2,0,2,12402,29261,5253,19178,0,0,0,0,0.00,0.00,0.00,0.00
2016-04-27 02:00:00,2,20804,12,0.00,2,2,0,2,14956,30957,4721,20364,0,41,19,0,0.00,0.00,0.00,0.00
2016-04-27 02:10:00,2,18471,8,0.00,2,2,0,2,10576,33048,6812,16994,0,41,16,0,0.00,0.00,0.00,0.00
2016-04-27 02:20:00,2,18630,67,0.04,2,2,0,2,13691,29008,5063,16302,41,77,13,71,0.00,0.05,0.02,0.05
2016-04-27 02:30:00,2,13706,76,0.04,2,2,0,2,11420,17417,1723,13556,71,77,2,77,0.00,0.05,0.02,0.05
2016-04-27 02:40:00,2,11852,66,0.06,2,2,0,2,7563,17014,2986,11833,41,77,16,77,0.05,0.10,0.02,0.05
2016-04-27 02:50:00,2,11003,65,0.04,2,2,0,2,8786,13807,1534,11033,41,77,16,74,0.00,0.05,0.02,0.05
2016-04-27 03:00:00,2,11723,54,0.04,2,2,0,2,9182,14739,1491,11554,41,77,16,41,0.00,0.05,0.02,0.05
2016-04-27 03:10:00,2,10432,76,0.06,2,2,0,2,8079,13265,1708,10890,71,77,2,77,0.05,0.10,0.02,0.05
2016-04-27 03:20:00,2,9944,76,0.06,2,2,0,2,6777,12776,2049,9986,71,77,2,77,0.00,0.10,0.03,0.05
2016-04-27 03:30:00,2,7596,77,0.06,2,2,0,2,4463,10738,1822,7152,77,77,0,77,0.05,0.10,0.02,0.05
2016-04-27 03:40:00,2,11538,76,0.03,2,2,0,2,6645,14612,2416,11798,71,77,2,77,0.00,0.05,0.03,0.03
2016-04-27 03:50:00,2,9052,76,0.04,2,2,0,2,3923,17993,4453,8024,71,77,2,77,0.00,0.10,0.04,0.03
2016-04-27 04:00:00,2,5537,77,0.05,2,2,0,2,3809,9161,1521,4994,77,77,0,77,0.00,0.10,0.03,0.05
2016-04-27 04:10:00,2,5988,77,0.07,2,2,0,2,3316,8760,1665,6240,77,77,0,77,0.05,0.15,0.03,0.05
2016-04-27 04:20:00,2,6388,76,0.09,2,2,0,2,4021,9371,1732,5701,71,77,2,77,0.00,0.20,0.06,0.08
2016-04-27 04:30:00,2,7296,76,0.06,2,2,0,2,5331,9689,1310,6907,71,77,2,77,0.05,0.10,0.02,0.05
2016-04-27 04:40:00,2,8514,76,0.04,2,2,0,2,5756,10971,1732,8158,71,77,2,77,0.00,0.05,0.02,0.05
2016-04-27 04:50:00,2,11843,74,0.03,2,2,0,2,9832,13723,1282,11929,71,77,3,74,0.00,0.05,0.03,0.03
2016-04-27 05:00:00,2,9830,76,0.03,2,2,0,2,7924,12544,1589,9471,71,77,2,77,0.00,0.05,0.02,0.05
2016-04-27 05:10:00,2,10774,76,0.04,2,2,0,2,7827,13672,1729,10684,71,77,2,77,0.00,0.05,0.02,0.05
2016-04-27 05:20:00,2,12126,76,0.04,2,2,0,2,8811,21289,3656,10782,71,77,2,77,0.00,0.05,0.02,0.05
2016-04-27 05:30:00,2,9002,74,0.09,2,2,0,2,6426,12815,1798,8562,71,77,3,74,0.05,0.15,0.04,0.10
2016-04-27 05:40:00,2,7501,71,0.09,2,2,0,2,5650,10146,1337,7534,71,71,0,71,0.00,0.20,0.06,0.08
2016-04-27 05:50:00,2,11423,75,0.03,2,2,0,2,6610,21417,4422,10308,71,77,3,77,0.00,0.05,0.02,0.05
2016-04-27 06:00:00,2,11314,76,0.04,2,2,0,2,7103,14987,2782,11335,71,77,2,77,0.00,0.05,0.02,0.05
2016-04-27 06:10:00,2,12950,76,0.04,2,2,0,2,8572,23350,4439,11101,71,77,2,77,0.00,0.10,0.03,0.05
2016-04-27 06:20:00,2,15554,76,0.02,2,2,0,2,9103,21357,3881,15168,71,77,2,77,0.00,0.05,0.02,0.00
2016-04-27 06:30:00,2,12853,75,0.03,2,2,0,2,5488,17181,3872,14002,71,77,3,77,0.00,0.10,0.03,0.03
2016-04-27 06:40:00,2,9298,76,0.05,2,2,0,2,6780,12220,1630,9868,71,77,2,77,0.00,0.10,0.03,0.05
2016-04-27 06:50:00,2,7597,77,0.08,2,2,0,2,5550,12550,2111,6674,77,77,0,77,0.05,0.15,0.04,0.05
2016-04-27 07:00:00,2,7047,77,0.10,2,2,0,2,4696,10184,1600,6867,77,77,0,77,0.05,0.15,0.03,0.10
2016-04-27 07:10:00,2,9376,77,0.07,2,2,0,2,5360,16819,3458,8048,77,77,0,77,0.00,0.10,0.03,0.05
2016-04-27 07:20:00,2,11131,76,0.02,2,2,0,2,7108,16632,2990,10946,71,77,2,77,0.00,0.05,0.02,0.00
2016-04-27 07:30:00,2,12763,59,0.06,2,2,0,2,7423,18651,3222,12908,41,77,18,59,0.00,0.15,0.05,0.05
2016-04-27 07:40:00,2,5685,45,0.14,2,2,0,2,1593,10234,2523,4752,41,77,11,41,0.05,0.25,0.06,0.15
2016-04-27 07:50:00,2,7377,64,0.03,2,2,0,2,2680,15490,4301,6113,10,77,27,77,0.00,0.10,0.03,0.00
2016-04-27 08:00:00,2,24271,7,0.00,2,2,0,2,8666,37509,10577,26056,0,10,5,10,0.00,0.00,0.00,0.00
2016-04-27 08:10:00,2,42106,0,0.00,2,2,0,2,35456,50000,4918,41828,0,0,0,0,0.00,0.00,0.00,0.00
2016-04-27 08:20:00,2,31698,0,0.00,2,2,0,2,20611,44765,8117,32526,0,0,0,0,0.00,0.00,0.00,0.00
2016-04-27 08:30:00,2,11691,3,0.00,2,2,0,2,2214,22315,7850,11590,0,10,5,0,0.00,0.00,0.00,0.00
2016-04-27 08:40:00,2,39538,9,0.00,2,2,0,2,15459,50000,12302,44993,0,10,3,10,0.00,0.00,0.00,0.00
2016-04-27 08:50:00,2,20934,0,0.00,2,2,0,2,5741,48946,14854,14034,0,0,0,0,0.00,0.00,0.00,0.00
2016-04-27 09:00:00,2,12766,0,0.00,2,2,0,2,8028,18004,3282,12198,0,0,0,0,0.00,0.00,0.00,0.00
2016-04-27 09:10:00,2,9276,50,0.02,2,2,0,2,4220,17431,3357,8732,0,77,29,56,0.00,0.05,0.02,0.00
2016-04-27 09:20:00,2,14399,44,0.00,2,2,0,2,7492,22171,4632,14118,0,77,36,71,0.00,0.00,0.00,0.00
2016-04-27 09:30:00,2,26673,0,0.00,2,2,0,2,9948,40483,9463,29764,0,0,0,0,0.00,0.00,0.00,0.00
2016-04-27 09:40:00,2,39603,0,0.00,2,2,0,2,24636,50000,8611,43292,0,0,0,0,0.00,0.00,0.00,0.00
2016-04-27 09:50:00,2,44092,0,0.00,2,2,0,2,37536,50000,4471,43364,0,0,0,0,0.00,0.00,0.00,0.00
2016-04-27 10:00:00,2,41398,0,0.00,2,2,0,2,34392,46657,3803,40884,0,0,0,0,0.00,0.00,0.00,0.00
2016-04-27 10:10:00,2,49294,0,0.00,2,2,0,2,44410,50000,1668,50000,0,0,0,0,0.00,0.00,0.00,0.00
2016-04-27 10:20:00,2,45180,0,0.00,2,2,0,2,36569,50000,4418,44924,0,0,0,0,0.00,0.00,0.00,0.00
2016-04-27 10:30:00,2,47582,0,0.00,2,2,0,2,42504,50000,2467,47932,0,0,0,0,0.00,0.00,0.00,0.00
2016-04-27 10:40:00,2,26986,12,0.01,2,2,0,2,14929,41273,7876,29561,0,41,19,0,0.00,0.05,0.02,0.00
2016-04-27 10:50:00,2,14241,69,0.09,2,2,0,2,7788,21041,3815,14483,41,77,10,71,0.00,0.35,0.11,0.05
2016-04-27 11:00:00,2,19072,73,0.02,2,2,0,2,11652,27499,5432,19814,71,77,3,71,0.00,0.05,0.02,0.00
2016-04-27 11:10:00,2,12996,71,0.12,2,2,0,2,9436,17511,2243,12984,71,71,0,71,0.00,0.55,0.15,0.10
2016-04-27 11:20:00,2,11014,71,0.12,2,2,0,2,9580,12643,1041,10929,71,71,0,71,0.05,0.30,0.09,0.08
2016-04-27 11:30:00,2,12222,71,0.20,2,2,0,2,7283,17244,2598,12490,71,71,0,71,0.00,0.45,0.16,0.17
2016-04-27 11:40:00,2,16847,71,0.07,2,2,0,2,14575,19452,1834,16398,71,71,0,71,0.00,0.20,0.06,0.05
2016-04-27 11:50:00,2,20850,73,0.04,2,2,0,2,13717,31796,5206,19334,71,77,3,71,0.00,0.20,0.06,0.03
2016-04-27 12:00:00,2,17579,73,0.06,2,2,0,2,10519,36501,7864,13486,71,77,3,71,0.00,0.10,0.04,0.05
2016-04-27 12:10:00,2,9267,71,0.17,2,2,0,2,4937,13942,2447,8909,71,71,0,71,0.00,0.40,0.14,0.17
2016-04-27 12:20:00,2,8342,71,0.24,2,2,0,2,6336,10615,1387,8181,71,71,0,71,0.05,0.70,0.20,0.17
2016-04-27 12:30:00,2,7584,71,0.30,2,2,0,2,4664,10268,1744,8138,71,71,0,71,0.10,0.95,0.26,0.17
2016-04-27 12:40:00,2,6626,71,0.45,2,2,0,2,4774,8607,1227,6973,71,71,0,71,0.15,0.90,0.21,0.45
2016-04-27 12:50:00,2,9996,71,0.28,2,2,0,2,6969,16892,2668,9431,71,71,0,71,0.00,0.75,0.20,0.25
2016-04-27 13:00:00,2,5905,71,0.55,2,2,0,2,2988,9415,2105,6132,71,71,0,71,0.15,1.35,0.35,0.47
2016-04-27 13:10:00,2,5563,71,0.60,2,2,0,2,3955,6906,964,5812,71,71,0,71,0.40,1.10,0.19,0.57
2016-04-27 13:20:00,2,5419,71,0.58,2,2,0,2,3421,8491,1407,4980,71,71,0,71,0.15,1.00,0.27,0.62
2016-04-27 13:30:00,2,8058,71,0.43,2,2,0,2,4641,12798,2565,7759,71,71,0,71,0.00,1.15,0.36,0.28
2016-04-27 13:40:00,2,8292,71,0.40,2,2,0,2,4860,12567,2436,7802,71,71,0,71,0.10,1.00,0.27,0.30
2016-04-27 13:50:00,2,9450,71,0.36,2,2,0,2,5963,14125,2202,9324,71,71,0,71,0.05,0.80,0.28,0.30
2016-04-27 14:00:00,2,11586,71,0.28,2,2,0,2,6411,16850,2929,11642,71,71,0,71,0.05,0.75,0.20,0.25
2016-04-27 14:10:00,2,10445,71,0.36,2,2,0,2,4800,15704,3704,11842,71,71,0,71,0.05,0.95,0.31,0.28
2016-04-27 14:20:00,2,7182,71,0.78,2,2,0,2,3923,15465,3241,6336,71,71,0,71,0.10,1.45,0.45,0.70
2016-04-27 14:30:00,2,8741,71,0.40,2,2,0,2,5440,13190,2095,8574,71,71,0,71,0.10,0.70,0.19,0.40
2016-04-27 14:40:00,2,10648,71,0.26,2,2,0,2,6634,17385,3185,10704,71,71,0,71,0.00,0.60,0.20,0.20
2016-04-27 14:50:00,2,7826,71,0.36,2,2,0,2,3881,18544,4081,6258,71,71,0,71,0.05,0.70,0.22,0.33
2016-04-27 15:00:00,2,8226,71,0.30,2,2,0,2,5092,12298,2303,7396,71,71,0,71,0.05,0.60,0.18,0.28
2016-04-27 15:10:00,2,6047,71,0.44,2,2,0,2,4625,7194,912,5968,71,71,0,71,0.10,0.75,0.22,0.42
2016-04-27 15:20:00,2,5300,71,0.64,2,2,0,2,3709,8320,1475,4928,71,71,0,71,0.40,1.15,0.22,0.57
2016-04-27 15:30:00,2,6370,71,0.68,2,2,0,2,3633,12226,2765,5652,71,71,0,71,0.20,1.45,0.33,0.70
2016-04-27 15:40:00,2,10600,71,0.20,2,2,0,2,4765,15863,3223,10983,71,71,0,71,0.05,0.60,0.20,0.12
2016-04-27 15:50:00,2,12907,71,0.17,2,2,0,2,6804,23355,5063,11838,71,71,0,71,0.00,0.50,0.15,0.12
2016-04-27 16:00:00,2,9768,71,0.35,2,2,0,2,6463,12745,2469,9622,71,71,0,71,0.05,1.00,0.30,0.25
2016-04-27 16:10:00,2,9279,71,0.23,2,2,0,2,3615,14785,3513,9626,71,71,0,71,0.05,0.70,0.17,0.20
2016-04-27 16:20:00,2,8626,71,0.34,2,2,0,2,4529,14045,2496,8173,71,71,0,71,0.00,1.00,0.26,0.33
2016-04-27 16:30:00,2,10800,71,0.13,2,2,0,2,5436,15774,2611,10934,71,71,0,71,0.00,0.25,0.09,0.12
2016-04-27 16:40:00,2,9525,71,0.22,2,2,0,2,7723,12355,1505,9202,71,71,0,71,0.05,0.40,0.12,0.17
2016-04-27 16:50:00,2,7442,71,0.36,2,2,0,2,3209,10439,1974,7301,71,71,0,71,0.05,0.65,0.19,0.38
2016-04-27 17:00:00,2,7320,71,0.47,2,2,0,2,4742,10052,1742,7370,71,71,0,71,0.15,0.70,0.16,0.47
2016-04-27 17:10:00,2,9502,71,0.48,2,2,0,2,4012,18464,4621,7992,71,71,0,71,0.00,1.40,0.46,0.38
2016-04-27 17:20:00,2,5012,71,0.82,2,2,0,2,3736,6223,870,5222,71,71,0,71,0.20,1.30,0.38,0.93
2016-04-27 17:30:00,2,6989,71,0.51,2,2,0,2,3906,10461,2120,7064,71,71,0,71,0.25,1.20,0.28,0.38
2016-04-27 17:40:00,2,6611,71,0.49,2,2,0,2,3317,13388,2888,6002,71,71,0,71,0.10,1.05,0.33,0.38
2016-04-27 17:50:00,2,15060,71,0.14,2,2,0,2,8090,20912,3542,15266,71,71,0,71,0.00,0.60,0.19,0.05
2016-04-27 18:00:00,2,9136,71,0.34,2,2,0,2,5460,17818,3390,8384,71,71,0,71,0.00,0.70,0.20,0.40
2016-04-27 18:10:00,2,7016,71,0.32,2,2,0,2,2167,12436,3058,6348,71,71,0,71,0.05,0.75,0.22,0.30
2016-04-27 18:20:00,2,6116,71,0.57,2,2,0,2,2218,14176,4006,3976,71,71,0,71,0.15,1.30,0.36,0.47
2016-04-27 18:30:00,2,7092,71,0.52,2,2,0,2,2608,13442,3759,5669,71,71,0,71,0.00,1.40,0.42,0.45
2016-04-27 18:40:00,2,10026,71,0.27,2,2,0,2,5144,17954,4317,8112,71,71,0,71,0.00,0.60,0.22,0.22
2016-04-27 18:50:00,2,3622,71,0.91,2,2,0,2,2715,4792,715,3324,71,71,0,71,0.10,2.05,0.54,0.90
2016-04-27 19:00:00,2,2345,71,1.20,2,2,0,2,1265,5199,1152,1979,71,71,0,71,0.25,2.40,0.56,1.12
2016-04-27 19:10:00,2,3184,71,1.10,2,2,0,2,1771,6915,1363,2903,71,71,0,71,0.10,2.45,0.69,0.93
2016-04-27 19:20:00,2,2905,71,1.12,2,2,0,2,1397,4408,879,2782,71,71,0,71,0.50,2.70,0.59,0.97
2016-04-27 19:30:00,2,2576,71,1.37,2,2,0,2,1463,4101,806,2326,71,71,0,71,0.50,1.90,0.40,1.43
2016-04-27 19:40:00,2,2410,71,1.44,2,2,0,2,1853,3307,437,2525,71,71,0,71,0.90,2.10,0.43,1.43
2016-04-27 19:50:00,2,2481,71,1.38,2,2,0,2,1729,3777,659,2294,71,71,0,71,0.85,1.80,0.31,1.40
2016-04-27 20:00:00,2,2401,71,1.64,2,2,0,2,1567,3450,468,2358,71,71,0,71,0.70,2.65,0.55,1.48
2016-04-27 20:10:00,2,1761,71,2.06,2,2,0,2,881,2664,455,1768,71,71,0,71,1.45,2.55,0.40,2.25
2016-04-27 20:20:00,2,2977,71,0.96,2,2,0,2,1523,4899,959,3271,71,71,0,71,0.30,2.05,0.51,1.00
2016-04-27 20:30:00,2,3117,71,1.16,2,2,0,2,1880,3991,663,3322,71,71,0,71,0.75,1.95,0.40,1.05
2016-04-27 20:40:00,2,2077,71,1.71,2,2,0,2,1656,2828,328,2016,71,71,0,71,1.15,2.75,0.52,1.43
2016-04-27 20:50:00,2,2600,71,1.43,2,2,0,2,1964,3882,624,2348,71,71,0,71,0.95,1.95,0.27,1.43
2016-04-27 21:00:00,2,3926,71,1.10,2,2,0,2,2173,5293,1040,4210,71,71,0,71,0.45,2.10,0.57,0.93
2016-04-27 21:10:00,2,3684,71,0.90,2,2,0,2,1369,7567,1691,3732,71,71,0,71,0.45,1.80,0.33,0.85
2016-04-27 21:20:00,2,3676,71,1.07,2,2,0,2,2430,5474,935,3344,71,71,0,71,0.60,1.90,0.44,0.95
2016-04-27 21:30:00,2,5133,71,0.49,2,2,0,2,2405,8916,2032,5534,71,71,0,71,0.00,1.15,0.31,0.47
2016-04-27 21:40:00,2,8180,71,0.42,2,2,0,2,5301,11668,2279,8206,71,71,0,71,0.05,0.75,0.23,0.50
2016-04-27 21:50:00,2,12064,71,0.21,2,2,0,2,7978,18913,3310,12716,71,71,0,71,0.00,0.45,0.14,0.23
2016-04-27 22:00:00,2,11174,71,0.29,2,2,0,2,2960,21210,5894,11788,71,71,0,71,0.00,1.45,0.41,0.17
2016-04-27 22:10:00,2,5314,71,0.77,2,2,0,2,2657,9990,2073,5144,71,71,0,71,0.25,1.65,0.40,0.75
2016-04-27 22:20:00,2,6154,71,0.55,2,2,0,2,3766,10225,1832,6043,71,71,0,71,0.20,1.60,0.40,0.42
2016-04-27 22:30:00,2,8788,71,0.32,2,2,0,2,3167,14924,3323,8620,71,71,0,71,0.00,1.45,0.42,0.15
2016-04-27 22:40:00,2,5019,71,1.23,2,2,0,2,2715,10498,2339,3820,71,71,0,71,0.35,2.65,0.65,1.23
2016-04-27 22:50:00,2,5964,71,1.05,2,2,0,2,1970,12602,3979,4587,71,71,0,71,0.00,3.15,1.03,0.57
2016-04-27 23:00:00,2,4125,71,1.55,2,2,0,2,2222,6940,1727,3716,71,71,0,71,0.40,3.45,0.87,1.33
2016-04-27 23:10:00,2,3650,71,2.13,2,2,0,2,2657,4600,650,3487,71,71,0,71,1.15,3.55,0.72,2.10
2016-04-27 23:20:00,2,5462,71,1.52,2,2,0,2,3073,10696,2116,4460,71,71,0,71,0.20,3.15,0.81,1.52
2016-04-27 23:30:00,2,6382,71,0.72,2,2,0,2,4513,7779,1020,6646,71,71,0,71,0.20,1.80,0.48,0.65
2016-04-27 23:40:00,2,9345,71,0.30,2,2,0,2,6609,13280,1909,9525,71,71,0,71,0.05,0.90,0.24,0.23
2016-04-27 23:50:00,2,16798,71,0.04,2,2,0,2,9876,23217,4840,16788,71,71,0,71,0.00,0.25,0.08,0.00
